Cosmos 614 Rocket - Orbit

View from above orbital plane
View from above orbital plane
View from above satellite
View from above satellite

Ground track
Ground track

The orbit data is extracted from the following two-line orbital elements,

1 06966U 73098B   13139.09562803  .00000318  00000-0  10431-3 0  9785
2 06966 074.0570 103.2224 0020378 094.2195 338.6365 14.42223330 70663
Epoch (UTC): 19 May 2013 02:17:42
Eccentricity: 0.0020378
inclination: 74.0570°
perigee height: 736 km
apogee height: 765 km
right ascension of ascending node: 103.2224°
argument of perigee: 94.2195°
revolutions per day: 14.42223330
mean anomaly at epoch: 338.6365°
orbit number at epoch: 7066

The dashed part of the orbit path shows where the satellite is in the earth's shadow,  

Developed and maintained by Chris Peat, Heavens-Above GmbH. Please read the updated FAQ before sending e-mail. Imprint. DLR